EJA157 KMLU-KCOU

Flight info

Callsign EJA157
Flight time 1h 4m
Altitude 40000
Route LIT TBN COU
Aircraft C25C/M-L/C

Departure

Time 2026-04-29 01:01
Airport Monroe Regional Airport (KMLU)

Arrival

Time 2026-04-29 02:06
Airport Columbia Regional Airport (KCOU)
Time Latitude Longitude Altitude Speed Heading
2026-04-29 00:47 32.51162 -92.04204 80 ft 0 kts 266°
2026-04-29 00:50 32.51163 -92.04195 80 ft 3 kts 266°
2026-04-29 00:51 32.51163 -92.04188 80 ft 0 kts 266°
2026-04-29 00:56 32.51164 -92.04180 82 ft 3 kts 266°
2026-04-29 00:57 32.51165 -92.04159 79 ft 3 kts 266°
2026-04-29 00:57 32.51165 -92.04155 79 ft 0 kts 266°
2026-04-29 01:00 32.51179 -92.04152 83 ft 10 kts 93°
2026-04-29 01:00 32.51179 -92.04028 77 ft 16 kts 92°
2026-04-29 01:00 32.51214 -92.03913 83 ft 13 kts 52°
2026-04-29 01:00 32.51270 -92.03824 82 ft 16 kts 58°
2026-04-29 01:01 32.51188 -92.03705 80 ft 32 kts 141°
2026-04-29 01:01 32.50890 -92.03414 80 ft 95 kts 140°
2026-04-29 01:01 32.50231 -92.02743 559 ft 141 kts 136°
2026-04-29 01:01 32.49459 -92.01819 1356 ft 175 kts 136°
2026-04-29 01:02 32.48543 -92.00641 2242 ft 217 kts 136°
2026-04-29 01:02 32.47483 -91.99134 3160 ft 255 kts 133°
2026-04-29 01:02 32.46820 -91.97061 4054 ft 286 kts 97°
2026-04-29 01:02 32.47291 -91.94760 4953 ft 298 kts 63°
2026-04-29 01:03 32.48552 -91.92801 5850 ft 300 kts 39°
2026-04-29 01:03 32.50371 -91.91722 6730 ft 294 kts 11°
2026-04-29 01:03 32.52353 -91.91588 7600 ft 281 kts 347°
2026-04-29 01:03 32.54345 -91.91775 8518 ft 289 kts 348°
2026-04-29 01:04 32.56366 -91.91980 9448 ft 296 kts 346°
2026-04-29 01:04 32.58454 -91.92204 10351 ft 302 kts 347°
2026-04-29 01:04 32.60562 -91.92418 11227 ft 307 kts 347°
2026-04-29 01:04 32.62690 -91.92624 12122 ft 310 kts 347°
2026-04-29 01:05 32.64856 -91.92846 13040 ft 318 kts 347°
2026-04-29 01:05 32.67110 -91.93078 13961 ft 333 kts 347°
2026-04-29 01:05 32.69469 -91.93320 14832 ft 346 kts 348°
2026-04-29 01:05 32.71899 -91.93558 15721 ft 355 kts 348°
2026-04-29 01:06 32.74391 -91.93808 16640 ft 363 kts 348°
2026-04-29 01:06 32.76924 -91.94066 17586 ft 369 kts 348°
2026-04-29 01:06 32.79510 -91.94325 18523 ft 374 kts 348°
2026-04-29 01:06 32.82103 -91.94589 19370 ft 377 kts 348°
2026-04-29 01:07 32.84755 -91.94855 20250 ft 380 kts 348°
2026-04-29 01:07 32.87394 -91.95125 21149 ft 382 kts 349°
2026-04-29 01:07 32.90033 -91.95391 22063 ft 383 kts 349°
2026-04-29 01:07 32.92696 -91.95661 23016 ft 384 kts 349°
2026-04-29 01:08 32.95351 -91.95931 23909 ft 384 kts 349°
2026-04-29 01:08 32.98005 -91.96198 24728 ft 383 kts 349°
2026-04-29 01:08 33.00675 -91.96473 25585 ft 381 kts 348°
2026-04-29 01:08 33.03305 -91.96737 26451 ft 379 kts 348°
2026-04-29 01:09 33.05925 -91.97006 27351 ft 377 kts 348°
2026-04-29 01:09 33.08506 -91.97267 28267 ft 374 kts 348°
2026-04-29 01:09 33.11113 -91.97533 29234 ft 371 kts 348°
2026-04-29 01:09 33.13663 -91.97793 30181 ft 366 kts 347°
2026-04-29 01:10 33.16183 -91.98048 31031 ft 361 kts 347°
2026-04-29 01:10 33.18645 -91.98300 31895 ft 355 kts 346°
2026-04-29 01:10 33.21079 -91.98547 32796 ft 347 kts 346°
2026-04-29 01:10 33.23457 -91.98789 33727 ft 340 kts 345°
2026-04-29 01:11 33.25800 -91.99028 34584 ft 331 kts 345°
2026-04-29 01:11 33.28045 -91.99257 35417 ft 321 kts 344°
2026-04-29 01:11 33.30244 -91.99481 36285 ft 310 kts 344°
2026-04-29 01:11 33.32351 -91.99695 37178 ft 297 kts 343°
2026-04-29 01:12 33.34356 -91.99896 38092 ft 282 kts 342°
2026-04-29 01:12 33.36253 -92.00090 38933 ft 268 kts 341°
2026-04-29 01:12 33.38110 -92.00292 39279 ft 271 kts 340°
2026-04-29 01:12 33.40015 -92.00503 39460 ft 280 kts 341°
2026-04-29 01:13 33.41987 -92.00707 39660 ft 289 kts 342°
2026-04-29 01:13 33.44014 -92.00909 39838 ft 297 kts 342°
2026-04-29 01:13 33.46124 -92.01128 39898 ft 310 kts 342°
2026-04-29 01:13 33.48317 -92.01358 39937 ft 323 kts 343°
2026-04-29 01:14 33.50624 -92.01595 39942 ft 336 kts 343°
2026-04-29 01:14 33.52982 -92.01834 39947 ft 349 kts 343°
2026-04-29 01:14 33.55444 -92.02088 39946 ft 361 kts 344°
2026-04-29 01:15 33.60610 -92.02618 39944 ft 381 kts 344°
2026-04-29 01:15 33.66009 -92.03173 39941 ft 398 kts 345°
2026-04-29 01:16 33.71625 -92.03753 39934 ft 412 kts 345°
2026-04-29 01:16 33.77426 -92.04351 39937 ft 421 kts 345°
2026-04-29 01:17 33.83279 -92.04953 39927 ft 421 kts 345°
2026-04-29 01:17 33.89137 -92.05564 39927 ft 422 kts 345°
2026-04-29 01:18 33.94962 -92.06168 39922 ft 423 kts 345°
2026-04-29 01:18 34.03794 -92.07088 39925 ft 424 kts 345°
2026-04-29 01:19 34.09688 -92.07702 39924 ft 425 kts 345°
2026-04-29 01:19 34.15577 -92.08316 39923 ft 426 kts 345°
2026-04-29 01:20 34.21497 -92.08935 39926 ft 427 kts 345°
2026-04-29 01:20 34.27411 -92.09555 39923 ft 427 kts 345°
2026-04-29 01:21 34.33308 -92.10173 39921 ft 428 kts 345°
2026-04-29 01:21 34.39241 -92.10795 39916 ft 428 kts 345°
2026-04-29 01:22 34.45204 -92.11424 39896 ft 429 kts 345°
2026-04-29 01:22 34.51123 -92.12046 39883 ft 429 kts 345°
2026-04-29 01:23 34.57089 -92.12675 39870 ft 429 kts 345°
2026-04-29 01:23 34.63032 -92.13302 39859 ft 429 kts 345°
2026-04-29 01:24 34.68972 -92.13932 39851 ft 429 kts 345°
2026-04-29 01:24 34.74926 -92.14562 39850 ft 429 kts 345°
2026-04-29 01:25 34.80845 -92.15170 39916 ft 431 kts 347°
2026-04-29 01:25 34.86905 -92.15171 39896 ft 435 kts 351°
2026-04-29 01:26 34.92934 -92.15161 39897 ft 435 kts 351°
2026-04-29 01:26 34.98011 -92.15130 39892 ft 435 kts 351°
2026-04-29 01:27 35.04065 -92.15108 39896 ft 435 kts 351°
2026-04-29 01:27 35.10097 -92.15082 39898 ft 435 kts 351°
2026-04-29 01:28 35.16162 -92.15055 39899 ft 435 kts 351°
2026-04-29 01:28 35.22210 -92.15028 39902 ft 435 kts 351°
2026-04-29 01:29 35.28285 -92.15002 39906 ft 435 kts 351°
2026-04-29 01:29 35.34319 -92.14977 39905 ft 435 kts 351°
2026-04-29 01:30 35.40410 -92.14950 39916 ft 435 kts 351°
2026-04-29 01:30 35.46456 -92.14923 39924 ft 436 kts 351°
2026-04-29 01:31 35.52519 -92.14896 39927 ft 435 kts 351°
2026-04-29 01:31 35.58542 -92.14871 39927 ft 435 kts 352°
2026-04-29 01:32 35.64630 -92.14843 39927 ft 435 kts 352°
2026-04-29 01:32 35.70677 -92.14818 39925 ft 436 kts 352°
2026-04-29 01:33 35.76731 -92.14792 39914 ft 435 kts 352°
2026-04-29 01:33 35.82777 -92.14765 39906 ft 435 kts 352°
2026-04-29 01:34 35.88861 -92.14738 39903 ft 435 kts 352°
2026-04-29 01:34 35.94910 -92.14711 39900 ft 436 kts 352°
2026-04-29 01:35 36.01006 -92.14683 39901 ft 436 kts 352°
2026-04-29 01:35 36.07047 -92.14657 39903 ft 436 kts 352°
2026-04-29 01:36 36.13133 -92.14629 39900 ft 436 kts 352°
2026-04-29 01:36 36.19195 -92.14603 39900 ft 436 kts 352°
2026-04-29 01:37 36.25297 -92.14577 39907 ft 437 kts 352°
2026-04-29 01:37 36.31354 -92.14548 39909 ft 437 kts 351°
2026-04-29 01:38 36.37468 -92.14521 39910 ft 437 kts 351°
2026-04-29 01:38 36.43537 -92.14494 39905 ft 437 kts 351°
2026-04-29 01:39 36.49608 -92.14468 39906 ft 437 kts 351°
2026-04-29 01:39 36.55702 -92.14439 39908 ft 436 kts 351°
2026-04-29 01:40 36.61762 -92.14413 39913 ft 437 kts 351°
2026-04-29 01:40 36.67850 -92.14384 39921 ft 436 kts 351°
2026-04-29 01:41 36.73916 -92.14357 39925 ft 436 kts 351°
2026-04-29 01:41 36.79973 -92.14331 39924 ft 437 kts 351°
2026-04-29 01:42 36.86074 -92.14304 39928 ft 437 kts 350°
2026-04-29 01:42 36.92133 -92.14275 39933 ft 437 kts 350°
2026-04-29 01:43 36.98212 -92.14249 39932 ft 437 kts 350°
2026-04-29 01:43 37.04319 -92.14219 39932 ft 438 kts 350°
2026-04-29 01:44 37.10396 -92.14193 39932 ft 438 kts 350°
2026-04-29 01:44 37.16484 -92.14165 39935 ft 438 kts 349°
2026-04-29 01:45 37.22609 -92.14136 39672 ft 436 kts 349°
2026-04-29 01:45 37.25602 -92.14119 39008 ft 433 kts 349°
2026-04-29 01:45 37.28605 -92.14107 38246 ft 431 kts 349°
2026-04-29 01:46 37.31590 -92.14095 37429 ft 429 kts 349°
2026-04-29 01:46 37.34592 -92.14081 36623 ft 426 kts 349°
2026-04-29 01:46 37.37527 -92.14066 35860 ft 424 kts 349°
2026-04-29 01:46 37.40478 -92.14052 35070 ft 422 kts 349°
2026-04-29 01:47 37.43408 -92.14041 34301 ft 421 kts 349°
2026-04-29 01:47 37.46317 -92.14028 33494 ft 419 kts 349°
2026-04-29 01:47 37.49234 -92.14013 32639 ft 417 kts 349°
2026-04-29 01:47 37.52147 -92.14001 31812 ft 416 kts 349°
2026-04-29 01:48 37.55028 -92.13987 31013 ft 415 kts 349°
2026-04-29 01:48 37.57913 -92.13974 30235 ft 415 kts 349°
2026-04-29 01:48 37.60794 -92.13962 29374 ft 414 kts 349°
2026-04-29 01:48 37.63692 -92.13946 28490 ft 413 kts 349°
2026-04-29 01:49 37.66551 -92.13935 27642 ft 412 kts 349°
2026-04-29 01:49 37.69421 -92.13918 26816 ft 410 kts 349°
2026-04-29 01:49 37.72259 -92.13909 26018 ft 409 kts 349°
2026-04-29 01:49 37.75088 -92.14039 25225 ft 395 kts 340°
2026-04-29 01:50 37.77756 -92.14613 24469 ft 392 kts 339°
2026-04-29 01:50 37.80464 -92.15136 23735 ft 391 kts 340°
2026-04-29 01:50 37.83124 -92.15643 22914 ft 389 kts 340°
2026-04-29 01:50 37.85811 -92.16177 22061 ft 386 kts 340°
2026-04-29 01:51 37.88445 -92.16705 21237 ft 384 kts 340°
2026-04-29 01:51 37.91075 -92.17228 20440 ft 382 kts 341°
2026-04-29 01:51 37.93692 -92.17744 19663 ft 380 kts 341°
2026-04-29 01:51 37.96298 -92.18259 18901 ft 378 kts 341°
2026-04-29 01:52 37.98873 -92.18773 18147 ft 375 kts 341°
2026-04-29 01:52 38.01458 -92.19284 17292 ft 373 kts 341°
2026-04-29 01:52 38.04001 -92.19789 16490 ft 370 kts 342°
2026-04-29 01:52 38.06549 -92.20297 15677 ft 367 kts 341°
2026-04-29 01:53 38.09043 -92.20792 14899 ft 364 kts 342°
2026-04-29 01:53 38.11480 -92.21268 14127 ft 340 kts 341°
2026-04-29 01:53 38.13752 -92.21711 13315 ft 322 kts 341°
2026-04-29 01:53 38.15890 -92.22150 12476 ft 308 kts 342°
2026-04-29 01:54 38.17972 -92.22570 11648 ft 298 kts 343°
2026-04-29 01:54 38.20011 -92.22981 10838 ft 291 kts 344°
2026-04-29 01:54 38.21971 -92.23373 10077 ft 285 kts 345°
2026-04-29 01:54 38.23906 -92.23757 9383 ft 277 kts 346°
2026-04-29 01:55 38.25781 -92.24135 8691 ft 271 kts 346°
2026-04-29 01:55 38.27637 -92.24503 8058 ft 265 kts 347°
2026-04-29 01:55 38.29429 -92.24866 7531 ft 256 kts 347°
2026-04-29 01:55 38.31159 -92.25208 7027 ft 249 kts 347°
2026-04-29 01:56 38.32855 -92.25553 6522 ft 244 kts 347°
2026-04-29 01:56 38.34519 -92.25884 5999 ft 241 kts 347°
2026-04-29 01:56 38.36151 -92.26214 5567 ft 240 kts 348°
2026-04-29 01:56 38.37824 -92.26550 5196 ft 243 kts 348°
2026-04-29 01:57 38.39482 -92.26884 4881 ft 242 kts 348°
2026-04-29 01:57 38.41138 -92.27214 4560 ft 241 kts 349°
2026-04-29 01:57 38.42798 -92.27548 4230 ft 239 kts 349°
2026-04-29 01:57 38.44428 -92.27877 3903 ft 237 kts 349°
2026-04-29 01:58 38.46056 -92.28203 3589 ft 235 kts 351°
2026-04-29 01:58 38.47651 -92.28525 3269 ft 233 kts 351°
2026-04-29 01:58 38.49244 -92.28847 3066 ft 226 kts 351°
2026-04-29 01:58 38.50764 -92.29150 3012 ft 215 kts 352°
2026-04-29 01:59 38.52193 -92.29441 2996 ft 205 kts 352°
2026-04-29 01:59 38.53578 -92.29719 2987 ft 196 kts 351°
2026-04-29 01:59 38.54894 -92.29984 2989 ft 188 kts 351°
2026-04-29 01:59 38.56174 -92.30244 2989 ft 183 kts 351°
2026-04-29 02:00 38.57427 -92.30495 2990 ft 185 kts 351°
2026-04-29 02:00 38.58735 -92.30759 2986 ft 194 kts 351°
2026-04-29 02:00 38.60106 -92.31034 2993 ft 204 kts 351°
2026-04-29 02:00 38.61523 -92.31322 2991 ft 211 kts 352°
2026-04-29 02:01 38.62984 -92.31132 2993 ft 215 kts 18°
2026-04-29 02:01 38.64380 -92.30457 3008 ft 216 kts 20°
2026-04-29 02:01 38.65788 -92.29762 3017 ft 217 kts 20°
2026-04-29 02:01 38.67203 -92.29057 3011 ft 214 kts 20°
2026-04-29 02:02 38.68507 -92.28400 3006 ft 191 kts 20°
2026-04-29 02:02 38.69672 -92.27815 3006 ft 165 kts 20°
2026-04-29 02:02 38.70671 -92.27314 2893 ft 150 kts 21°
2026-04-29 02:02 38.71629 -92.26833 2707 ft 144 kts 20°
2026-04-29 02:03 38.72519 -92.26384 2529 ft 131 kts 20°
2026-04-29 02:03 38.73348 -92.25967 2373 ft 127 kts 20°
2026-04-29 02:03 38.74172 -92.25556 2205 ft 128 kts 20°
2026-04-29 02:03 38.75032 -92.25125 2046 ft 135 kts 20°
2026-04-29 02:04 38.75896 -92.24690 1876 ft 133 kts 20°
2026-04-29 02:04 38.76746 -92.24265 1703 ft 131 kts 20°
2026-04-29 02:04 38.77600 -92.23835 1523 ft 130 kts 20°
2026-04-29 02:04 38.78426 -92.23420 1361 ft 122 kts 21°
2026-04-29 02:05 38.79176 -92.23044 1201 ft 112 kts 21°
2026-04-29 02:05 38.79906 -92.22677 1051 ft 113 kts 22°
2026-04-29 02:05 38.80634 -92.22322 912 ft 112 kts 21°
2026-04-29 02:05 38.81244 -92.22008 888 ft 64 kts 21°
2026-04-29 02:06 38.81513 -92.21877 890 ft 20 kts 21°
2026-04-29 02:06 38.81591 -92.21886 889 ft 7 kts 291°
2026-04-29 02:06 38.81618 -92.21949 888 ft 11 kts 327°
2026-04-29 02:06 38.81739 -92.21914 888 ft 20 kts 20°
2026-04-29 02:07 38.81856 -92.21867 888 ft 12 kts 333°
2026-04-29 02:07 38.81910 -92.21929 888 ft 11 kts
2026-04-29 02:07 38.81947 -92.21960 889 ft 6 kts 295°
2026-04-29 02:07 38.81953 -92.21978 889 ft 0 kts 295°